(349) Dembowska
ephemeris date magn radius delta ra dec elong phase
Opposition12 Aug 20269.82.770 AU1.772 AU21h45m-26°36'167.6°4.5°
Today5 Sep 202610.12.753 AU1.828 AU21h25m-27°15'150.9°10.3°
(349) Dembowska - 2026-09-05
astro.vanbuitenen.nl


 
-1 year
-1 month
-1 day
Now
+1 day
+1 month
+1 year

The interactive orbit chart above shows the body's path through the solar system and its position at the given date. Green and blue lines are shown perpendicular to the ecliptic plane: Green if the path is above the ecliptic plane, blue if it is below. (Left-click and drag to rotate the view; Right-click and drag to move the view; Use scroll wheel to zoom in our out.)

The orbital elements of Dembowska are:

            e (Eccentricity)                : 0.0884545
            a (Semimajor axis)              : 2.9254935
            i (Inclination)                 : 8.24782
            Ω (Longitude of ascending node) : 32.18358
            ω (Argument of perihelion)      : 344.47909
            M (Mean anomaly)                : 298.29063
            Epoch                           : 2026 Jun 09

            L (Longitude of perihelion)     : 16.81558
            B (Latitude of perihelion)      : -2.19996
            P (Orbital period in years)     : 5.00            
        

The light curve chart below shows the estimated development of the minor planet's magnitude.


The all-sky chart below shows the path of the minor planet over the same period as the light curve. The current position is marked yellow.





The following chart shows the path of the minor planet in the next few days. The field of view is optimized for (~10x50) binoculars and finderscopes.




Ephemerides:
Date       Time       RA (2000)    DEC (2000)    delta   radius  elong  phase   PA    magn
2026-09-05 00:00 UT   21 25 48.3   -27 15 04     1.828    2.753  150.9   10.3    50   10.1 
2026-09-05 07:44 UT   21 25 34.6   -27 14 57     1.829    2.753  150.6   10.4    50   10.1 
2026-09-06 00:00 UT   21 25 06.1   -27 14 39     1.833    2.752  149.9   10.6    51   10.1 
2026-09-07 00:00 UT   21 24 25.2   -27 14 03     1.839    2.751  148.9   10.9    52   10.2 
2026-09-08 00:00 UT   21 23 45.4   -27 13 17     1.845    2.751  147.9   11.2    53   10.2 
2026-09-09 00:00 UT   21 23 06.8   -27 12 21     1.851    2.750  146.9   11.5    54   10.2 
2026-09-10 00:00 UT   21 22 29.6   -27 11 15     1.857    2.749  145.9   11.9    55   10.2 
2026-09-11 00:00 UT   21 21 53.7   -27 09 58     1.864    2.749  144.9   12.2    55   10.2 
2026-09-12 00:00 UT   21 21 19.1   -27 08 31     1.870    2.748  143.9   12.5    56   10.3 
2026-09-13 00:00 UT   21 20 45.9   -27 06 55     1.877    2.747  142.8   12.8    57   10.3 
2026-09-14 00:00 UT   21 20 14.2   -27 05 09     1.884    2.747  141.8   13.1    58   10.3 
2026-09-15 00:00 UT   21 19 43.9   -27 03 12     1.892    2.746  140.8   13.4    58   10.3 
2026-09-16 00:00 UT   21 19 15.1   -27 01 07     1.899    2.745  139.8   13.7    59   10.3 
2026-09-17 00:00 UT   21 18 47.8   -26 58 52     1.907    2.745  138.8   14.0    59   10.4 
2026-09-18 00:00 UT   21 18 22.1   -26 56 27     1.915    2.744  137.8   14.2    60   10.4 
2026-09-19 00:00 UT   21 17 57.8   -26 53 54     1.923    2.743  136.8   14.5    61   10.4 
2026-09-20 00:00 UT   21 17 35.2   -26 51 11     1.931    2.743  135.8   14.8    61   10.4 
2026-09-21 00:00 UT   21 17 14.1   -26 48 20     1.940    2.742  134.8   15.0    62   10.4 
2026-09-22 00:00 UT   21 16 54.5   -26 45 20     1.948    2.741  133.9   15.3    62   10.4 
2026-09-23 00:00 UT   21 16 36.6   -26 42 11     1.957    2.741  132.9   15.6    62   10.5 
2026-09-24 00:00 UT   21 16 20.3   -26 38 54     1.966    2.740  131.9   15.8    63   10.5 
2026-09-25 00:00 UT   21 16 05.6   -26 35 29     1.975    2.739  130.9   16.1    63   10.5 
2026-09-26 00:00 UT   21 15 52.4   -26 31 56     1.985    2.739  130.0   16.3    64   10.5 
2026-09-27 00:00 UT   21 15 40.9   -26 28 15     1.994    2.738  129.0   16.5    64   10.5 
2026-09-28 00:00 UT   21 15 31.0   -26 24 27     2.004    2.737  128.0   16.8    64   10.5 
2026-09-29 00:00 UT   21 15 22.8   -26 20 30     2.013    2.737  127.1   17.0    65   10.6 
2026-09-30 00:00 UT   21 15 16.1   -26 16 27     2.023    2.736  126.1   17.2    65   10.6 
2026-10-01 00:00 UT   21 15 11.0   -26 12 16     2.033    2.735  125.2   17.4    65   10.6 
2026-10-02 00:00 UT   21 15 07.6   -26 07 58     2.043    2.735  124.2   17.6    66   10.6 
2026-10-03 00:00 UT   21 15 05.7   -26 03 33     2.054    2.734  123.3   17.8    66   10.6 
2026-10-04 00:00 UT   21 15 05.5   -25 59 01     2.064    2.733  122.4   18.0    66   10.7 
2026-10-05 00:00 UT   21 15 06.8   -25 54 22     2.075    2.733  121.4   18.2    66   10.7 


    Terminology:
            
    delta:  distance between minor planet and earth in AU
    radius: distance between minor planet and sun in AU
    magn:   magnitude (brightness) estimate    
    ra:     right ascension in hours (24h = 360deg)
    dec:    declination in degrees
    elong:  elongation in degrees (angle sun-earth-minor planet)    
    phase:  phase angle in degrees (angle sun-minor planet-earth)        
    AU:     Astronomical Unit (mean distance between earth and sun: 149597870.7 km
    

Orbital elements provided by the MPC (Minor Planet Center).
Calculations by a modified version of AAPlus, a C# implementation of the AA+ project by PJ Naughter from the algorithms presented in the book "Astronomical Algorithms" by Jean Meeus.
NGC2000 dso catalog and star labels from VizieR as provided by the Strasbourg astronomical Data Center.
Tycho2 catalog from the ESO archive.